Location: Newark
(36.7000°N, 45.1333°E)
Time: 10:53:27
(UTC+00:00)

LightSail 2 - Pass Details

Date: 22 January 2020
Orbit: 699 x 722 km, 24.0° (Epoch: 22 February)

Event Time Altitude Azimuth Distance (km) Brightness Sun altitude
Rises 15:00:12 0° 236° (SW) 3,077 10.1 -9.6°
Reaches altitude 10° 15:03:16 10° 218° (SW) 2,165 8.6 -10.1°
Maximum altitude 15:06:45 19° 175° (S) 1,668 7.2 -10.8°
Drops below altitude 10° 15:10:16 10° 132° (SE) 2,178 7.3 -11.5°
Enters shadow 15:11:51 - 121° (ESE) 2,623 7.7 -11.8°
